Weather Roundup
Issued by NWS Chicago, IL

Home | Current Version | Previous Version | Graphics & Text | Print | Product List | Glossary On
Versions: 1 2 3 4 5 6 7 8 9 10 11 12 13 14 15 16 17 18 19 20 21 22 23 24 25 26 27 28 29 30 31 32 33 34 35 36 37 38 39 40 41 42 43 44 45 46 47 48 49 50
000
NZUS59 KLOT 311458
HRRLOT

CHICAGO AREA WEATHER ROUNDUP
NATIONAL WEATHER SERVICE CHICAGO/ROMEOVILLE IL
1000 AM CDT FRI OCT 31 2014

NOTE: "FAIR" INDICATES FEW OR NO CLOUDS BELOW 12,000 FEET WITH NO
SIGNIFICANT WEATHER AND/OR OBSTRUCTIONS TO VISIBILITY.

* THESE STATIONS ARE NOT UNDER NWS QUALITY CONTROL. THEY ALSO MAY NOT
  REPORT WEATHER SUCH AS PRECIPITATION OR FOG.

ILZ005-006-012>014-019>023-311600-
NORTHEAST ILLINOIS

CITY           SKY/WX    TMP DP  RH WIND       PRES   REMARKS
OHARE          PTSUNNY   39  28  64 N26G35    30.12R
MIDWAY         NOT AVBL
AURORA         MOSUNNY   38  26  62 N25G41    30.17R
WAUKEGAN       NOT AVBL
DUPAGE AIRPORT CLOUDY    38  27  64 N26G39    30.15R
WHEELING       CLOUDY    39  27  62 N24G44    30.15R
NORTHERLY IS     N/A     39  29  67 NW20        N/A
$$

WIZ051-052-058>065-066-070>072-311600-
SOUTHEAST WISCONSIN

CITY           SKY/WX    TMP DP  RH WIND       PRES   REMARKS
MILWAUKEE      FLURRIES  35  25  66 NW24G38   30.16R WCI  23
KENOSHA*       CLOUDY    36  26  67 N24G37    30.15R
WAUKESHA       CLOUDY    34  21  60 N18G37    30.20R WCI  23
$$

INZ001>003-010>013-019-020-311600-
NORTHWEST INDIANA

CITY           SKY/WX    TMP DP  RH WIND       PRES   REMARKS
GARY*          LGT RAIN  39  34  81 NW25G44   30.08S
MICHIGAN CITY* NOT AVBL
RENSSELAER*    NOT AVBL
$$

LMZ740>746-311600-
SOUTHERN LAKE MICHIGAN

STATION/POSITION TIME  SKY/WX   TEMP WIND        PRES    VSBY
                                AIR  DIR/SP/G
                 (UTC)          (F)  (DEG/KT/KT) (MB)    (MI)
HARRISON CRIB    1400            39  330/ 36/ 45   N/A
BURNHAM HARBOR   1400            39  330/ 16/ 24   N/A
CALUMET HARBOR   1400            38  310/ 13/ 19 1017.5S
BURNS HARBOR     NOT AVBL
MICHIGAN CITY    1400            40  340/ 29/ 36   N/A
$$

ABBREVIATIONS USED IN REMARKS
   TC - TEMPERATURE IN CELSIUS
  WCI - WIND CHILL INDEX
   HX - HEAT INDEX
  VSB - VISIBILITY
$$



USA.gov is the U.S. government's official web portal to all federal, state and local government web resources and services.